Rbgn^[z[y[W
メイン
   新天体発見情報
     Comet C/2019 A5 (PANSTARRS)
投稿するにはまず登録を

フラット表示 前のトピック | 次のトピック
投稿者 スレッド
佐藤裕久
投稿日時: 2019-1-29 12:42
モデレータ
登録日: 2005-6-12
居住地: 日本
投稿: 2676
オンライン
Comet C/2019 A5 (PANSTARRS)

R. WainscoatとR. Werykの書込みによると、1月4.6日UT、Haleakalaにある1.8-m Ritchey-
Chretien Pan-STARRS1望遠鏡によって得られた画像から、最初は小惑星状として他の天体の報告
があった。後で少しぼんやりした外観に見えることに気づいた。
Werykは、1月14.43日UT、Wainscoat, L. WellsとS. PrunetがMauna Keaにある3.6-m Canada-
France-Hawaii望遠鏡 (CFHT)で得たフォローアップ確認の60秒3枚gri-バンドMegaCamイメージで、
南西に向かってかすかに4"の尾が見えた。この彗星の頭部コマのFWHM(半値全幅)は近傍の恒星が
0".7であるのに対し1".2 であった。光度は21.2等と測定された。
良いシーイング条件(シーイング0".6)の1月15.39日にCFHTによりさらに画像が得られ、p.a. 230°
に少なくとも10"の尾が見えた。頭部コマのFWHMは1".0であった。

発見位置は次のとおり、

     2019 UT             R.A. (2000) Decl.       Mag.
     Jan.  4.57882    9 31 17.72   - 3 31 25.3   20.4
           4.59069    9 31 17.54   - 3 31 22.3   21.2
           4.60257    9 31 17.32   - 3 31 18.9   21.1
           4.61447    9 31 17.09   - 3 31 15.5   21.2
          13.49202    9 28 18.25   - 2 46 27.2   21.5
          13.50406    9 28 17.97   - 2 46 23.2   21.6
          13.51609    9 28 17.70   - 2 46 19.0   21.3
          13.52816    9 28 17.43   - 2 46 15.2   21.7

暫定放物線軌道軌道要素と位置推算表は次のとおり、

Orbital elements:
    C/2019 A5 (PANSTARRS)
T 2017 Oct. 13.97678 TT                                 MPCW
q   4.5372526            (2000.0)            P               Q
                   Peri.  287.08194     +0.01480129     -0.91025414
                   Node   149.96859     +0.87634901     +0.21106986
e   1.0            Incl.   55.76996     -0.48144921     +0.35621188
From 20 observations 2019 Jan. 4-17.

Ephemeris:
    C/2019 A5 (PANSTARRS)
Date    TT    R. A. (2000) Decl.     Delta      r     Elong.  Phase   m1
2018 12 18    09 35 04.7 -04 36 26   5.1608  5.6698   116.6     8.9  21.1
...
2019 01 02    09 32 02.4 -03 42 56   5.0354  5.7389   131.9     7.3  21.1
...
2019 01 10    09 29 32.9 -03 05 00   4.9868  5.7762   140.2     6.3  21.1
...
2019 01 16    09 27 21.7 -02 32 23   4.9606  5.8045   146.3     5.4  21.1
2019 01 17    09 26 58.5 -02 26 37   4.9572  5.8092   147.3     5.3  21.1
2019 01 18    09 26 34.9 -02 20 46   4.9541  5.8139   148.3     5.1  21.1
...
2019 01 24    09 24 07.5 -01 43 49   4.9412  5.8424   154.1     4.2  21.1
...
2019 02 01    09 20 39.2 -00 50 11   4.9408  5.8806   160.9     3.1  21.2
...
2019 02 16    09 14 03.8 +01 00 08   4.9955  5.9530   164.4     2.5  21.2

(CBET 4601、MPEC 2019-B45)

フラット表示 前のトピック | 次のトピック

題名 投稿者 日時
 » Comet C/2019 A5 (PANSTARRS) 佐藤裕久 2019-1-29 12:42

投稿するにはまず登録を
 
© 1999 Tsutomu Seki.